Content
SEND FEEDBACK

Daily
Averages
Monthly
Summary
Switzerland

GENEVA, SWITZERLAND


Home > Europe > Switzerland
Elevation: 1364 feet     Latitude: 46 15N     Longitude: 006 08E

WEATHER
 
SELECT A DAY
Number of Records: 315,702;   Date Range: 7/1/96 - 11/26/14
 
SHARE

PRINT THIS DATA

[ ← Previous Day ]
WEATHER ALMANAC - SEPTEMBER 5, 2013
[ Next Day → ]
[ °C ]   °F
Weather ElementAverageHighLow
Temperature69.9 °F86 °F (4:20 pm)57 °F (7:00 am)
Dewpoint58 °F61 °F (8:00 pm)52 °F (4:00 pm)
Humidity67.8 %100 % (4:20 am)23 % (4:00 pm)
Barometer30.03 in30.12 in (12:20 am)29.88 in (6:00 pm)
Wind Speed1.6 mph6.9 mph (4:00 pm)
Weather ElementAverage
Visibility8.3 mi
Wind DirectionENE (67 °)

Weather ElementTotal
Precipitation---
Cooling Degree Days6.5 (Base 65)
Growing Degree Days21.5 (Base 50)
Averaged from 66 records on September 5, 2013
WEATHER CONDITIONS BREAKOUT
WIND DIRECTION BREAKOUT
WEATHER BY HOUR - SEPTEMBER 5, 2013
[ °C ]   °F
Local TimeTemperatureDewpointHumidityBarometerVisibilityWind DirectionWind SpeedGust SpeedPrecipitationEventsConditions
12:20 AM60.8 °F59.0 °F94 %30.12 inCalmClear
12:50 AM60.8 °F59.0 °F94 %30.12 inCalmClear
1:00 AM61.0 °F58.0 °F85 %30.12 inWNW (300°)1.2 mph
1:20 AM60.8 °F59.0 °F94 %30.12 inCalmClear
1:50 AM60.8 °F59.0 °F94 %30.12 inCalmClear
2:00 AM61.0 °F57.0 °F82 %30.12 in31.0 miWNW (290°)1.2 mph
2:20 AM59.0 °F57.2 °F94 %30.12 inCalmClear
2:50 AM59.0 °F57.2 °F94 %30.12 inCalmClear
3:00 AM58.0 °F56.0 °F89 %30.12 inNW (320°)2.3 mph
3:50 AM57.2 °F55.4 °F94 %30.12 inCalmClear
4:00 AM58.0 °F56.0 °F90 %30.11 inEast (80°)1.2 mph
4:20 AM57.2 °F57.2 °F100 %30.09 inCalmClear
4:50 AM57.2 °F57.2 °F100 %30.09 inCalmClear
5:20 AM57.2 °F55.4 °F94 %30.09 in6.2 miCalmPartly Cloudy
5:50 AM57.2 °F55.4 °F94 %30.09 inCalmClear
6:00 AM58.0 °F55.0 °F88 %30.09 inWNW (300°)2.3 mph
6:20 AM57.2 °F55.4 °F94 %30.09 in6.2 miCalmPartly Cloudy
6:50 AM57.2 °F55.4 °F94 %30.09 in6.2 miCalmPartly Cloudy
7:00 AM57.0 °F54.0 °F87 %30.08 inWest (280°)1.2 mph
7:20 AM57.2 °F55.4 °F94 %30.09 in6.2 miCalmPartly Cloudy
7:50 AM57.2 °F55.4 °F94 %30.09 in6.2 miCalmPartly Cloudy
8:00 AM59.0 °F55.0 °F84 %30.08 in22.0 miNW (310°)1.2 mphScattered Clouds
8:20 AM60.8 °F57.2 °F88 %30.09 in6.2 miCalmPartly Cloudy
8:50 AM66.2 °F59.0 °F78 %30.09 in6.2 miCalmPartly Cloudy
9:00 AM64.0 °F58.0 °F75 %30.06 inWNW (300°)1.2 mph
9:20 AM68.0 °F60.8 °F78 %30.09 in6.2 miCalmPartly Cloudy
9:50 AM69.8 °F59.0 °F68 %30.09 inVariable1.2 mphClear
10:00 AM67.0 °F58.0 °F65 %30.05 inEast (90°)2.3 mph
10:20 AM71.6 °F59.0 °F64 %30.09 inVariable1.2 mphClear
10:50 AM73.4 °F59.0 °F61 %30.06 in6.2 miVariable1.2 mphPartly Cloudy
11:20 AM75.2 °F57.2 °F53 %30.06 in6.2 miVariable2.3 mphPartly Cloudy
11:50 AM75.2 °F59.0 °F57 %30.06 in6.2 miEast (90°)3.5 mphPartly Cloudy
12:00 PM74.0 °F58.0 °F47 %30.01 inNE (40°)3.5 mph
12:20 PM77.0 °F59.0 °F54 %30.06 in6.2 miVariable2.3 mphPartly Cloudy
12:50 PM77.0 °F59.0 °F54 %30.04 in6.2 miVariable2.3 mphPartly Cloudy
1:00 PM76.0 °F58.0 °F43 %29.99 inENE (70°)4.6 mph
1:20 PM78.8 °F59.0 °F51 %30.04 in6.2 miVariable3.5 mphPartly Cloudy
1:50 PM80.6 °F59.0 °F48 %30.04 in6.2 miVariable2.3 mphPartly Cloudy
2:00 PM80.0 °F59.0 °F38 %29.96 in22.0 miENE (60°)4.6 mphScattered Clouds
2:20 PM82.4 °F59.0 °F45 %30.01 in6.2 miVariable2.3 mphPartly Cloudy
2:50 PM84.2 °F59.0 °F42 %30.01 in6.2 miVariable2.3 mphPartly Cloudy
3:00 PM83.0 °F57.0 °F30 %29.93 inSSW (210°)5.8 mph
3:20 PM84.2 °F59.0 °F42 %30.01 in6.2 miSW (220°)4.6 mphPartly Cloudy
3:50 PM84.2 °F57.2 °F40 %29.98 in6.2 miVariable2.3 mphPartly Cloudy
4:00 PM84.0 °F52.0 °F23 %29.90 inSouth (190°)6.9 mph
4:20 PM86.0 °F53.6 °F33 %29.98 in6.2 miSW (220°)4.6 mphPartly Cloudy
4:50 PM86.0 °F57.2 °F37 %29.98 in6.2 miSSW (210°)5.8 mphPartly Cloudy
5:20 PM86.0 °F55.4 °F35 %29.95 in6.2 miSSW (200°)4.6 mphPartly Cloudy
5:50 PM82.4 °F59.0 °F45 %29.95 in6.2 miVariable2.3 mphPartly Cloudy
6:00 PM81.0 °F56.0 °F32 %29.88 inEast (80°)3.5 mph
6:20 PM82.4 °F59.0 °F45 %29.95 in6.2 miVariable3.5 mphPartly Cloudy
6:50 PM82.4 °F59.0 °F45 %29.95 in6.2 miVariable2.3 mphPartly Cloudy
7:00 PM78.0 °F60.0 °F44 %29.88 inEast (80°)3.5 mph
7:20 PM78.8 °F60.8 °F54 %29.95 in6.2 miVariable1.2 mphPartly Cloudy
7:50 PM75.2 °F60.8 °F61 %29.95 in6.2 miCalmPartly Cloudy
8:00 PM73.0 °F61.0 °F57 %29.89 in22.0 miWest (270°)1.2 mphScattered Clouds
8:20 PM71.6 °F60.8 °F69 %29.95 in6.2 miCalmPartly Cloudy
8:50 PM71.6 °F60.8 °F69 %29.95 in6.2 miCalmPartly Cloudy
9:00 PM72.0 °F60.0 °F57 %29.91 inNE (40°)1.2 mph
9:20 PM71.6 °F60.8 °F69 %29.95 inCalmClear
9:50 PM69.8 °F60.8 °F73 %29.95 inCalmClear
10:00 PM68.0 °F59.0 °F66 %29.92 inSouth (170°)1.2 mph
10:20 PM68.0 °F59.0 °F73 %29.95 inCalmClear
10:50 PM66.2 °F60.8 °F83 %29.95 inCalmClear
11:20 PM68.0 °F60.8 °F78 %29.95 inCalmClear
11:50 PM68.0 °F60.8 °F78 %29.95 in6.2 miCalmMostly Cloudy
Hourly data recorded from LSGG, located miles away from Geneva, Switzerland







STORIES FROM OUR PARTNERS